Wetbulb
70.70 71.24 70.08 71.89 70.00 70.02 69.90 70.81 71.52 73.53 73.89 74.10 73.97 73.55 73.87 72.09 71.92 71.61 71.95 72.47 72.16 72.83
71.17 70.67 70.51 70.49 72.21 70.18 71.96 73.37 72.52 73.34 73.78 73.55 73.23 72.11 72.16 72.54 72.27 72.51 71.25 71.88 72.79 72.62
72.00 71.83 71.33 72.12 71.57 71.08 71.69 71.43 72.16 72.76 72.54 73.07 73.20 73.42 73.19 72.20 71.92 71.30 72.03 71.88 70.56 69.75
72.41 72.14 71.78 71.83 71.21 71.74 71.75 70.32 71.40 71.09 70.97 70.15 71.35 72.31 70.52 72.43 71.90 71.26 70.03 70.54 70.31 70.75
71.58 71.96 71.62 71.35 71.25 71.59 71.22 70.31 70.22 70.11 68.58 66.54 65.11 71.41 71.46 71.15 71.51 70.83 69.83 67.87 66.69 70.69
71.65 71.49 71.57 71.35 71.04 71.57 71.95 70.54 69.19 66.34 69.94 67.35 66.62 70.92 71.41 70.68 71.51 71.64 71.41 70.73 70.62 70.82
71.16 71.39 71.73 71.91 70.85 71.24 71.27 71.93 70.51 68.97 68.46 71.92 71.68 72.13 72.03 72.48 72.06 71.69 71.92 71.78 71.48 71.52
68.60 70.27 70.96 70.48 71.04 71.81 72.43 72.47 71.78 70.95 71.81 71.89 72.78 73.02 71.53 71.81 71.96 71.81 71.33 71.74 72.03 72.16
68.85 68.83 68.76 67.98 66.92 67.23 70.46 70.81 71.45 71.38 70.95 71.17 72.57 70.07 69.35 71.69 71.46 71.49 71.30 70.41 70.92 72.20
68.20 68.18 68.88 68.49 66.76 66.14 67.16 70.33 70.60 70.65 71.36 71.06 71.34 67.95 65.58 67.23 70.93 71.04 70.70 70.36 71.36 71.78
66.84 67.46 67.93 67.59 66.51 66.09 68.04 69.43 69.38 70.42 70.60 70.82 67.50 63.70 63.74 65.92 67.32 70.00 71.37 71.11 71.17 70.93
66.58 64.83 65.15 64.70 64.61 64.73 67.93 70.21 69.12 69.88 69.85 69.27 63.70 62.07 62.61 64.62 67.80 69.59 69.95 70.09 69.84 70.33
66.28 65.06 64.49 65.66 65.63 66.55 68.90 68.99 68.76 68.13 66.69 64.24 63.65 61.75 61.45 62.92 66.88 67.86 68.92 68.69 64.65 62.07
65.51 65.71 66.18 66.24 66.33 67.34 67.54 67.73 65.78 63.99 63.13 59.97 60.76 58.67 57.50 58.23 63.54 64.99 66.48 68.22 63.94 59.19
MSLP
1014.77 1015.14 1015.00 1015.07 1015.31 1015.85 1016.18 1016.48 1016.53 1016.82 1016.89 1017.16 1017.34 1017.49 1017.76 1018.14 1018.18 1018.26 1018.58 1018.88 1018.93 1019.07
1014.59 1014.89 1014.82 1014.55 1014.68 1015.04 1015.51 1015.49 1015.54 1015.75 1016.57 1016.67 1016.90 1017.08 1017.37 1017.81 1017.94 1018.15 1018.31 1018.44 1018.56 1018.64
1014.15 1014.53 1014.56 1014.45 1014.50 1014.61 1015.08 1015.07 1015.29 1015.61 1016.15 1016.50 1016.56 1016.67 1016.91 1017.37 1017.78 1018.07 1018.16 1018.16 1018.22 1018.31
1013.48 1013.95 1014.16 1014.12 1014.35 1014.37 1014.80 1014.95 1015.21 1015.49 1016.00 1016.21 1016.45 1016.69 1016.83 1016.89 1017.23 1017.78 1017.90 1017.89 1017.96 1018.07
1012.66 1012.97 1013.42 1013.65 1013.92 1014.24 1014.54 1014.53 1014.86 1015.38 1015.78 1015.80 1016.19 1016.31 1016.67 1016.85 1016.91 1017.17 1017.49 1017.67 1017.66 1017.72
1011.74 1012.18 1012.51 1013.12 1013.57 1013.84 1014.35 1014.47 1014.44 1014.89 1015.39 1015.54 1015.93 1016.27 1016.41 1016.49 1016.66 1016.66 1016.93 1017.14 1017.16 1017.01
1010.98 1011.61 1012.12 1012.49 1013.18 1013.47 1013.66 1013.84 1013.95 1014.40 1014.77 1015.03 1015.26 1015.57 1016.01 1016.06 1016.11 1016.19 1016.42 1016.63 1016.75 1016.67
1011.00 1011.77 1011.93 1012.30 1012.64 1012.96 1013.12 1013.23 1013.28 1013.66 1014.09 1014.33 1014.62 1014.94 1015.32 1015.49 1015.63 1015.74 1016.01 1016.06 1016.14 1016.11
1010.89 1011.72 1011.70 1012.75 1013.27 1013.44 1013.29 1013.01 1012.94 1013.19 1013.67 1013.99 1014.16 1014.42 1014.69 1014.91 1015.19 1015.36 1015.53 1015.76 1015.61 1015.58
1010.78 1010.43 1011.71 1012.44 1013.39 1013.50 1013.77 1013.17 1012.79 1013.01 1013.37 1013.72 1013.88 1014.13 1014.39 1014.74 1014.90 1014.77 1014.97 1015.37 1015.34 1015.46
1010.88 1011.32 1011.93 1013.42 1013.93 1014.01 1014.21 1013.30 1012.54 1012.69 1013.01 1013.20 1013.74 1014.04 1014.14 1014.42 1014.45 1014.56 1014.51 1014.53 1014.70 1015.06
1011.77 1012.15 1012.55 1012.62 1013.00 1013.88 1014.21 1012.28 1012.08 1012.35 1012.59 1013.00 1014.08 1014.31 1014.42 1014.35 1014.39 1014.30 1014.12 1014.20 1014.54 1014.85
1012.32 1012.54 1012.73 1012.78 1012.72 1013.28 1011.11 1011.79 1010.96 1012.45 1013.11 1013.69 1014.38 1014.31 1014.58 1014.57 1014.41 1014.36 1014.10 1014.23 1014.68 1014.90
1011.87 1012.09 1012.29 1012.49 1012.52 1012.02 1011.77 1011.77 1012.06 1013.19 1013.91 1014.37 1014.72 1015.27 1015.06 1014.80 1014.57 1014.54 1014.48 1014.35 1014.99 1015.50
Wind_Speed
8 4 5 5 4 5 5 4 7 7 8 7 7 6 4 3 3 3 3 4 4 3
9 7 6 6 5 5 4 4 9 11 8 7 7 6 5 3 3 2 3 4 3 2
12 8 7 5 7 6 5 5 6 5 5 5 7 7 7 4 2 1 3 3 3 1
11 10 8 6 6 6 7 7 8 7 6 5 3 4 5 5 4 3 4 3 5 5
13 12 11 10 7 7 7 8 8 7 7 4 3 3 6 6 5 3 6 6 3 5
13 12 12 11 10 8 7 9 8 8 7 8 7 7 6 7 7 6 7 7 6 5
10 12 11 10 10 10 8 8 8 8 9 8 8 7 7 7 7 6 6 6 6 6
6 5 5 3 7 10 9 10 9 7 7 7 6 6 7 7 7 7 7 7 6 6
11 6 3 4 6 6 7 7 7 7 7 7 7 10 12 9 6 7 7 7 7 6
9 6 3 2 7 10 12 8 7 7 6 7 7 8 2 5 6 6 7 7 6 5
7 6 6 3 8 12 18 9 7 6 8 7 5 6 4 0 4 5 7 7 7 7
5 7 8 5 4 14 21 7 5 2 4 4 6 8 7 4 3 5 7 6 5 5
6 7 8 10 8 10 13 4 7 7 7 8 6 5 2 1 2 5 4 4 7 11
4 4 4 5 7 8 3 7 9 8 6 6 4 3 5 6 1 2 2 3 4 3
Wind_Direction
220 209 212 183 182 170 179 187 194 183 185 197 193 182 180 190 200 189 219 246 243 225
210 206 212 214 188 197 180 209 200 182 173 188 188 196 189 211 233 193 219 228 266 249
203 203 199 207 201 197 171 121 114 122 124 228 193 189 182 192 253 321 244 169 100 296
194 198 208 207 215 195 158 159 145 155 150 158 144 201 179 195 189 201 233 230 178 241
193 195 203 214 211 224 166 164 165 154 177 198 247 221 200 199 212 195 231 251 242 233
193 196 203 206 209 212 186 183 180 163 186 196 206 227 210 204 217 209 217 226 236 230
186 194 200 201 207 207 199 188 194 178 192 201 201 204 215 205 211 221 227 234 230 226
298 291 210 213 208 208 194 204 194 189 194 202 197 217 220 218 212 215 228 238 249 233
234 177 83 340 316 315 279 212 196 195 197 203 214 215 217 218 213 217 218 229 242 243
167 137 142 269 319 315 288 236 201 197 196 210 213 229 129 222 239 219 209 218 221 238
130 138 164 254 295 301 283 243 216 201 205 206 106 81 66 237 228 246 228 209 208 214
120 129 147 114 34 287 276 245 227 202 203 179 97 76 45 11 282 247 233 214 223 234
153 169 166 147 169 253 250 150 118 93 81 105 108 59 23 290 260 277 245 235 92 57
77 91 127 182 168 213 133 74 78 83 83 78 76 77 26 2 354 53 327 100 104 92